Total_Precipitation_Accumulation
0.00 0.00 0.00 0.00 0.00 0.00 0.00 0.00 0.00 0.03 0.09 0.13 0.18 0.22 0.24 0.16 0.47 1.04 0.97 1.23 1.83 1.44 1.03 1.58 1.30 0.62 0.25 0.22 0.19 0.04 0.03 0.02 0.02 0.00 0.00 0.00 0.01 0.00 0.01 0.02 0.10 0.13 0.07 0.06 0.03 0.03 0.04 0.07 0.07
0.00 0.00 0.00 0.00 0.00 0.00 0.00 0.01 0.01 0.03 0.17 0.23 0.32 0.35 0.43 0.37 0.17 0.64 0.86 0.71 0.66 1.44 1.56 1.44 2.29 1.43 0.96 0.70 0.77 0.82 0.37 0.25 0.04 0.00 0.01 0.03 0.01 0.00 0.02 0.02 0.08 0.07 0.06 0.05 0.04 0.07 0.09 0.10 0.10
0.00 0.00 0.00 0.00 0.00 0.00 0.00 0.01 0.05 0.08 0.16 0.14 0.11 0.20 0.44 0.64 0.60 0.70 0.78 0.90 0.80 1.05 0.97 1.28 2.08 1.57 1.03 1.12 1.12 1.65 1.98 1.87 1.01 0.42 0.36 0.32 0.22 0.14 0.08 0.08 0.10 0.10 0.15 0.14 0.09 0.16 0.16 0.06 0.03
0.00 0.00 0.00 0.00 0.00 0.00 0.00 0.02 0.07 0.10 0.11 0.09 0.10 0.21 0.49 0.58 0.48 0.44 0.76 1.28 1.83 2.03 1.47 1.74 2.10 1.30 0.70 1.09 1.43 1.50 2.15 3.35 4.17 4.05 2.50 1.31 0.84 0.44 0.39 0.29 0.25 0.26 0.31 0.38 0.42 0.44 0.36 0.03 0.00
0.00 0.00 0.00 0.00 0.00 0.00 0.00 0.02 0.08 0.11 0.11 0.42 0.18 0.11 0.66 0.80 0.31 0.42 1.15 2.28 3.41 4.56 4.04 3.63 3.90 5.05 2.78 2.51 1.70 1.31 1.44 2.50 4.86 5.24 3.84 2.51 1.88 1.68 1.17 0.68 0.50 0.55 0.52 0.42 0.43 0.25 0.18 0.02 0.00
0.00 0.00 0.00 0.00 0.00 0.01 0.03 0.13 0.22 0.37 0.35 0.46 0.35 0.42 0.86 0.47 0.38 0.75 1.60 3.62 5.15 6.63 8.73 9.01 7.66 8.03 7.58 4.81 2.99 1.95 1.38 1.22 1.62 2.34 1.93 1.99 2.27 1.75 1.62 1.44 0.88 0.60 0.43 0.40 0.28 0.12 0.08 0.05 0.02
0.00 0.00 0.00 0.00 0.01 0.00 0.02 0.15 0.35 0.53 0.42 0.20 0.38 0.40 0.95 0.96 0.77 0.88 1.55 2.78 5.21 5.54 7.02 10.68 9.49 7.14 5.90 6.72 5.91 3.53 2.59 1.66 1.44 1.39 1.70 1.31 2.10 1.61 1.23 1.39 1.60 0.78 0.42 0.61 0.47 0.32 0.54 0.21 0.22
0.00 0.00 0.00 0.00 0.01 0.02 0.06 0.15 0.21 0.15 0.09 0.07 0.15 0.46 1.10 0.76 0.53 0.47 0.58 0.86 2.15 2.59 3.35 3.93 4.06 3.28 2.87 3.59 4.48 4.30 2.96 2.42 2.12 1.36 1.46 1.58 1.52 1.35 1.28 1.33 1.50 1.22 0.57 0.47 0.44 0.59 0.48 0.57 0.38
0.00 0.00 0.00 0.00 0.03 0.11 0.16 0.28 0.33 0.20 0.06 0.11 0.26 0.18 0.28 0.46 0.34 0.34 0.61 0.72 1.36 2.28 1.62 1.65 1.26 0.85 0.83 1.26 2.01 2.73 2.46 2.46 2.51 2.03 1.22 1.94 2.05 1.06 1.21 1.48 1.20 0.83 0.52 0.46 0.48 0.44 0.56 0.56 0.62
0.00 0.00 0.00 0.00 0.06 0.33 0.29 0.15 0.03 0.01 0.01 0.20 0.53 0.53 0.32 0.33 0.25 0.20 0.26 0.62 1.09 0.94 0.77 0.49 0.39 0.30 0.25 0.24 0.37 0.73 1.50 2.23 2.24 2.82 1.43 1.37 2.29 1.23 1.19 1.62 1.01 0.80 0.57 0.48 0.46 0.40 0.44 0.47 0.41
0.00 0.00 0.00 0.00 0.00 0.00 0.01 0.01 0.00 0.00 0.19 0.52 0.67 0.50 0.42 0.34 0.24 0.27 0.45 0.40 0.52 0.32 0.21 0.27 0.47 0.47 0.20 0.19 0.16 0.24 0.68 1.48 1.54 2.52 2.13 0.86 1.24 1.47 1.54 1.98 1.23 0.75 0.56 0.48 0.46 0.24 0.19 0.15 0.20
0.00 0.00 0.00 0.00 0.00 0.00 0.00 0.00 0.01 0.04 0.27 0.22 0.26 0.69 0.62 0.49 0.39 0.33 0.29 0.22 0.11 0.15 0.16 0.12 0.12 0.20 0.24 0.24 0.20 0.21 0.52 0.89 0.94 1.26 2.29 1.07 0.90 1.05 1.39 1.48 1.10 0.54 0.40 0.29 0.29 0.15 0.09 0.06 0.13
0.00 0.00 0.00 0.00 0.00 0.00 0.00 0.01 0.02 0.08 0.45 0.51 0.27 0.32 0.45 0.50 0.44 0.51 0.31 0.11 0.09 0.08 0.15 0.19 0.20 0.27 0.30 0.33 0.18 0.20 0.73 0.86 0.82 0.82 1.19 1.10 0.91 0.75 1.13 0.96 1.18 0.66 0.45 0.28 0.27 0.19 0.13 0.07 0.07
0.00 0.00 0.00 0.00 0.00 0.00 0.00 0.03 0.09 0.18 0.77 0.30 0.15 0.08 0.17 0.26 0.28 0.24 0.13 0.10 0.09 0.10 0.19 0.28 0.28 0.43 0.20 0.22 0.25 0.35 0.66 0.80 0.65 0.62 0.77 0.71 0.71 0.67 0.86 0.84 0.87 0.93 0.92 0.38 0.28 0.25 0.15 0.12 0.09
0.00 0.00 0.00 0.00 0.00 0.00 0.01 0.03 0.13 0.21 0.39 0.13 0.05 0.05 0.06 0.11 0.16 0.10 0.11 0.23 0.16 0.22 0.25 0.42 0.65 0.54 0.22 0.11 0.17 0.32 0.65 0.58 0.53 0.50 0.51 0.48 0.46 0.53 0.58 0.66 0.77 0.71 1.13 0.66 0.42 0.44 0.44 0.31 0.16
0.00 0.00 0.00 0.00 0.00 0.00 0.02 0.17 0.29 0.13 0.09 0.07 0.04 0.01 0.02 0.03 0.01 0.00 0.02 0.01 0.03 0.07 0.19 0.43 0.60 0.57 0.48 0.20 0.26 0.31 0.45 0.63 0.44 0.33 0.39 0.54 0.44 0.42 0.37 0.63 0.57 0.72 0.71 0.54 0.45 0.53 0.50 0.48 0.23
0.00 0.00 0.00 0.00 0.00 0.00 0.01 0.03 0.15 0.07 0.09 0.12 0.10 0.04 0.00 0.02 0.01 0.00 0.00 0.01 0.02 0.02 0.19 0.61 0.80 0.77 0.74 0.61 0.53 0.72 0.75 0.68 0.40 0.25 0.28 0.40 0.37 0.52 0.38 0.46 0.62 0.64 0.61 0.43 0.45 0.41 0.55 0.49 0.39
0.00 0.00 0.00 0.00 0.00 0.00 0.00 0.00 0.09 0.05 0.03 0.09 0.15 0.10 0.02 0.01 0.00 0.00 0.00 0.02 0.03 0.03 0.26 0.64 0.84 1.09 1.18 1.08 0.88 0.61 0.55 0.49 0.38 0.31 0.30 0.40 0.45 0.36 0.42 0.43 0.54 0.78 0.84 0.47 0.43 0.54 0.59 0.55 0.50
0.00 0.00 0.00 0.00 0.00 0.00 0.00 0.00 0.00 0.01 0.11 0.10 0.14 0.07 0.01 0.00 0.00 0.00 0.01 0.02 0.04 0.10 0.40 0.69 0.82 1.10 1.07 0.58 0.42 0.44 0.44 0.28 0.32 0.42 0.44 0.48 0.55 0.40 0.30 0.40 0.40 0.60 0.62 0.47 0.31 0.46 0.62 0.64 0.53
0.02 0.02 0.00 0.00 0.00 0.00 0.00 0.00 0.00 0.00 0.00 0.02 0.03 0.03 0.02 0.00 0.00 0.01 0.03 0.06 0.12 0.24 0.52 0.61 0.48 0.33 0.16 0.11 0.19 0.28 0.35 0.29 0.23 0.35 0.47 0.44 0.62 0.54 0.34 0.40 0.35 0.43 0.49 0.49 0.36 0.33 0.46 0.49 0.46
0.01 0.01 0.00 0.00 0.00 0.02 0.02 0.01 0.00 0.00 0.01 0.01 0.01 0.01 0.01 0.01 0.00 0.02 0.06 0.13 0.17 0.15 0.15 0.09 0.06 0.05 0.09 0.12 0.29 0.39 0.45 0.32 0.26 0.27 0.37 0.49 0.53 0.58 0.54 0.50 0.36 0.24 0.23 0.29 0.38 0.37 0.27 0.24 0.31
0.04 0.00 0.00 0.01 0.04 0.07 0.04 0.03 0.00 0.00 0.00 0.00 0.00 0.00 0.01 0.03 0.02 0.03 0.02 0.01 0.00 0.01 0.09 0.07 0.07 0.07 0.09 0.09 0.16 0.20 0.17 0.14 0.13 0.14 0.16 0.22 0.46 0.65 0.42 0.58 0.56 0.47 0.28 0.25 0.33 0.44 0.38 0.29 0.32
0.06 0.00 0.01 0.01 0.01 0.05 0.06 0.06 0.02 0.00 0.00 0.00 0.00 0.00 0.00 0.00 0.00 0.00 0.00 0.00 0.01 0.02 0.07 0.09 0.10 0.10 0.06 0.05 0.11 0.20 0.18 0.17 0.16 0.11 0.09 0.13 0.32 0.59 0.67 0.33 0.49 0.47 0.26 0.19 0.29 0.39 0.51 0.55 0.63
0.01 0.02 0.02 0.03 0.05 0.13 0.02 0.06 0.03 0.02 0.01 0.01 0.01 0.00 0.00 0.01 0.02 0.00 0.01 0.01 0.00 0.03 0.05 0.05 0.13 0.10 0.14 0.10 0.13 0.18 0.23 0.18 0.12 0.08 0.05 0.06 0.14 0.34 0.51 0.66 0.50 0.49 0.40 0.29 0.30 0.36 0.42 0.60 0.67
0.04 0.03 0.12 0.29 0.20 0.08 0.05 0.05 0.02 0.01 0.00 0.00 0.01 0.00 0.01 0.00 0.00 0.00 0.00 0.00 0.00 0.01 0.02 0.06 0.14 0.17 0.19 0.25 0.19 0.19 0.20 0.23 0.07 0.03 0.03 0.07 0.14 0.25 0.40 0.46 0.62 0.64 0.64 0.48 0.35 0.37 0.46 0.54 0.66
0.03 0.03 0.08 0.32 0.17 0.11 0.06 0.04 0.00 0.00 0.00 0.00 0.01 0.02 0.00 0.00 0.00 0.00 0.00 0.00 0.01 0.03 0.02 0.09 0.09 0.18 0.20 0.25 0.23 0.24 0.21 0.10 0.15 0.07 0.11 0.15 0.13 0.14 0.18 0.34 0.47 0.63 0.88 0.89 0.77 0.66 0.64 0.74 0.82
0.02 0.01 0.03 0.12 0.12 0.14 0.05 0.02 0.01 0.01 0.01 0.01 0.00 0.01 0.01 0.00 0.00 0.00 0.00 0.00 0.04 0.02 0.04 0.10 0.13 0.17 0.18 0.19 0.21 0.29 0.29 0.15 0.09 0.13 0.16 0.19 0.15 0.16 0.22 0.33 0.50 0.78 1.05 1.09 1.10 1.06 0.97 1.00 0.95
0.01 0.00 0.04 0.08 0.13 0.14 0.08 0.03 0.04 0.05 0.04 0.06 0.02 0.03 0.03 0.00 0.00 0.00 0.00 0.00 0.01 0.03 0.07 0.08 0.08 0.11 0.11 0.11 0.16 0.21 0.25 0.35 0.24 0.24 0.43 0.48 0.50 0.46 0.52 0.56 0.65 0.67 0.73 0.73 0.84 0.88 0.76 0.70 0.66
0.03 0.02 0.01 0.05 0.02 0.09 0.22 0.18 0.05 0.13 0.10 0.19 0.13 0.14 0.11 0.02 0.01 0.00 0.01 0.01 0.01 0.01 0.05 0.06 0.05 0.09 0.20 0.28 0.20 0.15 0.24 0.28 0.68 1.05 1.09 0.96 0.99 1.10 1.01 0.85 0.75 0.81 0.92 0.99 0.87 0.64 0.61 0.66 0.66
0.04 0.05 0.03 0.06 0.06 0.04 0.07 0.26 0.18 0.13 0.14 0.15 0.27 0.22 0.20 0.08 0.02 0.00 0.00 0.01 0.03 0.01 0.01 0.02 0.06 0.18 0.66 0.96 1.05 0.79 0.98 1.04 1.16 1.54 1.51 1.28 1.16 0.94 0.85 0.97 0.89 0.71 0.60 0.54 0.53 0.50 0.49 0.46 0.52